Regional Weather Roundup
Issued by NWS Upton, NY

Current Version | Previous Version | Graphics & Text | Print | Product List | Glossary Off
Versions: 1 2 3 4 5 6 7 8 9 10 11 12 13 14 15 16 17 18 19 20 21 22 23 24 25 26 27 28 29 30 31 32 33 34 35 36 37 38 39 40 41 42 43 44 45 46 47 48 49 50

957
ASUS41 KOKX 181208
RWROKX

REGIONAL WEATHER ROUNDUP
NATIONAL WEATHER SERVICE NEW YORK NY
700 AM EST WED JAN 18 2017

NOTE: "FAIR" INDICATES FEW OR NO CLOUDS BELOW 12,000 FEET WITH NO
SIGNIFICANT WEATHER AND/OR OBSTRUCTIONS TO VISIBILITY.

NYZ071-072-176-178-NJZ106-104-181300-
NEW YORK CITY METRO AREA

CITY           SKY/WX    TMP DP  RH WIND       PRES   REMARKS
Central Park   CLOUDY    40  39  97 NE8       29.92F WCI  34
Wall St Helipt CLOUDY    41  39  93 NE13G20   29.91S
Bronx Bot Gard NOT AVBL
LaGuardia APRT CLOUDY    42  39  89 NE13      29.91R
Kennedy INTL   CLOUDY    41  38  89 N12       29.90S
Breezy Point     N/A     39 N/A N/A N12         N/A  WCI  32
Newark/Liberty CLOUDY    39  38  96 N9        29.91R WCI  33
Teterboro      CLOUDY    40  37  89 N6        29.91R FOG
$$

NYZ177-179-078>081-181300-
LONG ISLAND NEW YORK

CITY           SKY/WX    TMP DP  RH WIND       PRES   REMARKS
Jones Beach      N/A     41 N/A N/A N12         N/A
Matinecock PT  NOT AVBL
Farmingdale    CLOUDY    41  39  93 NE13      29.89R
MacArthur/ISP  CLOUDY    41  40  96 N10       29.88R
Shirley        CLOUDY    40  40 100 N8        29.90R WCI  34
Westhampton    CLOUDY    41  39  93 NE9G17    29.88F
Southampton    NOT AVBL
Bridgehampton  NOT AVBL
East Hampton   CLOUDY    39  38  95 E13G23    29.87F WCI  32
Montauk          N/A     41  40  96 NE9G22    29.90S
$$

NYZ052-065-067-181300-
HUDSON VALLEY

CITY           SKY/WX    TMP DP  RH WIND       PRES   REMARKS
White Plains   DRIZZLE   39  36  89 NE3       29.90R
Newburgh       FOG       34  34 100 CALM      29.93R VSB 3/4
Montgomery     CLOUDY    35  33  92 NE3       29.91R FOG
Poughkeepsie   CLOUDY    33  33 100 CALM      29.93R FOG
Albany         LGT SNOW  33  31  92 N3        29.95R FOG
$$

NJZ001-105-106-008-010-013-015-019>022-104-181300-
NEW JERSEY

CITY           SKY/WX    TMP DP  RH WIND       PRES   REMARKS
Newark/Liberty CLOUDY    39  38  96 N9        29.91R WCI  33
Teterboro      CLOUDY    40  37  89 N6        29.91R FOG
Caldwell       CLOUDY    38  36  92 CALM      29.92R
Somerville     CLOUDY    39  36  89 NW3       29.90R
Linden         CLOUDY    39  37  93 CALM      29.91S
Sussex         CLOUDY    34  34 100 CALM      29.91S FOG
Andover          N/A     33  32  96 CALM      29.92R
Trenton        CLOUDY    38  38 100 N5        29.90S WCI  34
Millville      FOG       43  43 100 N3        29.88S VSB 1/4
Atlantic City  FOG       43  42  97 N6        29.87S VSB 1
Wrightstown    FOG       39  39 100 NW10      29.87R VSB 3/4 WCI  32
Toms River     CLOUDY    40  40 100 N10       29.89R FOG     WCI  33
Belmar         FOG       40  39  97 NW10      29.90R VSB 3/4 WCI  33
$$

PAZ047>061-062-071-181300-
EASTERN PENNSYLVANIA

CITY           SKY/WX    TMP DP  RH WIND       PRES   REMARKS
Philadelphia   CLOUDY    41  39  93 N8        29.91R
Allentown      CLOUDY    37  34  89 CALM      29.92R
Scranton       LGT RAIN  35  35 100 CALM      29.88S FOG
$$

CTZ002-004>006-009-010-012-RIZ004-006-007-MAZ004-011-015-181300-
SOUTHERN NEW ENGLAND
 IN CT

CITY           SKY/WX    TMP DP  RH WIND       PRES   REMARKS
Bradley INTL   DRIZZLE   35  34  96 N9        29.96R FOG     WCI  28
Hartford       LGT RAIN  36  35  96 N8        29.94F FOG     WCI  30
Danbury        CLOUDY    36  34  92 NE6       29.92R FOG     WCI  31
Wtrbury/Oxford LGT RAIN  36  32  87 E9        29.90S FOG     WCI  29
Bridgeport     CLOUDY    40  37  89 NE10      29.91R WCI  33
Meriden        CLOUDY    37  34  89 N7        29.93S FOG     WCI  32
New Haven      LGT RAIN  37  36  96 N7        29.91R WCI  32
Chester        CLOUDY    37  37 100 NE6       29.90F FOG     WCI  33
Groton         CLOUDY    39  37  92 NE12      29.90F WCI  32
Wilimantic     LGT RAIN  38  37  97 NE6       29.93F FOG     WCI  33

 IN RI

CITY           SKY/WX    TMP DP  RH WIND       PRES   REMARKS
Providence     LGT RAIN  38  36  92 NE9       29.95S FOG     WCI  31
Block Island   NOT AVBL
Westerly       CLOUDY    40  36  86 NE12      29.92F FOG     WCI  33
 IN MA

CITY           SKY/WX    TMP DP  RH WIND       PRES   REMARKS
Boston         LGT RAIN  38  36  92 E17       29.99F WCI  28
Worcester      FRZ RAIN  31  30  96 NE12      29.94S VSB 1/4 WCI  22
Westfield      LGT SNOW  33  33 100 N7        29.96S FOG     WCI  27
Provincetown   LGT RAIN  38  37  97 E13       29.98S WCI  30
Nantucket      CLOUDY    41  39  93 E17G25    29.89F
$$

ANZ330-335-338-340-345-350-353-355-181300-
COASTAL MARINE OBSERVATIONS


STATION/POSITION TIME  SKY/WX   TEMP    WIND        PRES    VSBY  WAVE
                                AIR SEA DIR/SP/G                  HT/PER
                 (UTC)          (F)     (DEG/KT/KT) (MB)    (MI)  (FT/S)
NY HARB ENTRANCE 1050            42 44   10/  8/ 10 1011.2          3/ 5
20 S FIRE ISLAND 1150            44 45   40/ 14/ 17 1010.2          4/ 5
GREAT SOUTH BAY  NOT AVBL
23 SSW MONTAUK P 1050            46 48   70/ 19/ 23 1010.9          5/ 6
15 E BARNEGAT LI 1130               45                N/A           3/ 5
HUDSON CANYON    1050            50 53              1010.2          3/ 4
KINGS POINT      1136            39 38              1012.1
EXECUTION ROCKS  1145            40      50/ 14/ 17   N/A
CENTRAL LI SOUND 1115            40      70/ 17/ 23   N/A           3/ 5
EASTERN LI SOUND NOT AVBL
ROBBINS REEF     1136            38     350/  9/ 11 1012.8
$$


>>>>>>>>>>>>>>>>>>>>>>>>>>>> KEY <<<<<<<<<<<<<<<<<<<<<<<<<<<
>                                                          <
>     SKY/WX - Sky Condition/Present Weather               <
>     TMP    - Temperature in Fahrenheit                   <
>     DP     - Dew Point in Fahrenheit                     <
>     RH     - Relative Humidity in Percent                <
>     WIND   - Direction (from) and Speed in MPH           <
>     PRES   - Mean Sea Level Pressure (inches of Hg)      <
>     WCI    - Wind Chill Index                            <
>     VSB    - VISIBILITY IN MILES                         <
>     HX     - HEAT INDEX                                  <
>     TC     - TEMPERATURE IN CELSIUS                      <
>     VRB    - VARIABLE WIND DIRECTION                     <
>                                                          <
>>>>>>>>>>>>>>>>>>>>>>>>>>>> KEY <<<<<<<<<<<<<<<<<<<<<<<<<<<




USA.gov is the U.S. government's official web portal to all federal, state and local government web resources and services.